Regional Weather Roundup
Issued by NWS Wilmington, NC

Home | Current Version | Previous Version | Text Only | Print | Product List | Glossary On
Versions: 1 2 3 4 5 6 7 8 9 10 11 12 13 14 15 16 17 18 19 20 21 22 23 24 25 26 27 28
000
ASUS42 KILM 200413
RWRILM
RWRILM
REGIONAL HOURLY WEATHER ROUNDUP
NATIONAL WEATHER SERVICE WILMINGTON NC
1200 AM EDT FRI OCT 20 2017

NOTE: "FAIR" INDICATES FEW OR NO CLOUDS BELOW 12,000 FEET WITH NO
SIGNIFICANT WEATHER AND/OR OBSTRUCTIONS TO VISIBILITY.

...............WFO WILMINGTON COUNTY WARNING AREA...............

......COASTAL NC AND SC COUNTIES......

CITY           SKY/WX    TMP DP  RH WIND       PRES   REMARKS
WILMINGTON     FAIR      60  59  96 CALM      30.22S
N MYRTLE BEACH FAIR      58  58 100 CALM      30.22S
MYRTLE BEACH   FAIR      61  60  97 CALM      30.23S

......INLAND NC AND SC COUNTIES.......

CITY           SKY/WX    TMP DP  RH WIND       PRES   REMARKS
LUMBERTON      NOT AVBL
ELIZABETHTOWN  NOT AVBL
WHITEVILLE     FAIR      57  55  94 CALM      30.23R
FLORENCE       FAIR      52  52 100 CALM      30.23F
DARLINGTON     FAIR      50  49  96 CALM      30.24S
KINGSTREE      FAIR      50  50 100 CALM      30.24S
HARTSVILLE     FAIR      50  50 100 CALM      30.23S
BENNETTSVILLE  FAIR      50  50 100 CALM      30.23S
CONWAY         FAIR      54  54 100 CALM      30.23S
GEORGETOWN     FAIR      55  54  94 CALM      30.23S
MARION         FAIR      52  52 100 CALM      30.23S

....................REST OF NORTH CAROLINA......................

.........EASTERN NC.........

CITY           SKY/WX    TMP DP  RH WIND       PRES   REMARKS
CAPE HATTERAS  FAIR      59  59 100 N3        30.20S
JACKSONVILLE   FAIR      53  53 100 CALM      30.22S
MOREHEAD CITY  FAIR      57  56  96 CALM      30.20F
KENANSVILLE    FAIR      52  50  93 CALM      30.22S FOG
NEW BERN       FAIR      57  57 100 CALM      30.22S
ELIZABETH CITY FAIR      56  56 100 SW5       30.20S

.........CENTRAL NC.........

CITY           SKY/WX    TMP DP  RH WIND       PRES   REMARKS
RALEIGH DURHAM FAIR      50  48  93 CALM      30.23S
ROCKY MOUNT    FAIR      51  51 100 SW3       30.21F FOG
ROANOKE RAPIDS NOT AVBL
FAYETTEVILLE   FAIR      55  54  96 W3        30.22S
HOFFMAN        FAIR      48  46  93 NW3       30.23S

.........WESTERN NC.........

CITY           SKY/WX    TMP DP  RH WIND       PRES   REMARKS
CHARLOTTE      FAIR      50  48  93 CALM      30.25S
GREENSBORO     FAIR      51  46  83 SW5       30.23F
HICKORY        NOT AVBL
BOONE          NOT AVBL
ASHEVILLE      NOT AVBL

.....................REST OF SOUTH CAROLINA.....................

.........EASTERN SC.........

CITY           SKY/WX    TMP DP  RH WIND       PRES   REMARKS
CHARLESTON     FAIR      59  58  96 N6        30.22S
BEAUFORT MCAS  FAIR      60  58  92 MISG      30.23R
HILTON HEAD    FAIR      63  59  88 CALM      30.23S

.........CENTRAL SC.........

CITY           SKY/WX    TMP DP  RH WIND       PRES   REMARKS
COLUMBIA       FAIR      51  50  96 W3        30.24S
ORANGEBURG     FAIR      54  52  93 CALM      30.24S
SUMTER SHAW    FAIR      56  50  81 CALM      30.22S

.........WESTERN SC.........

CITY           SKY/WX    TMP DP  RH WIND       PRES   REMARKS
GREENVILLE     NOT AVBL
ROCK HILL      FAIR      46  46 100 CALM      30.25F
ANDERSON       FAIR      50  46  86 CALM      30.26R
CLEMSON        NOT AVBL
GREENWOOD      FAIR      47  46  97 CALM      30.27S


...................COASTAL AND OFFSHORE REPORTS..................

................LOCAL PIERS AND NC RESERVE................


STATION/POSITION TIME  SKY/WX   TEMP    WIND        PRES    VSBY
                                AIR SEA DIR/SP/G
                 (UTC)          (F)     (DEG/KT/KT) (MB)    (MI)
JOHNY MRCER PIER 0336            65 75  310/  5/  7 1023.2S
NC RESRV MASNBRO 0245            63     320/  2     1023.0
OCEAN CREST PIER NOT AVBL
SPRINGMAID  PIER 0336                               1022.7R


................COASTAL AND OFFSHORE BUOYS................


STATION/POSITION TIME  SKY/WX   TEMP    WIND        PRES    VSBY
                                AIR SEA DIR/SP/G
                 (UTC)          (F)     (DEG/KT/KT) (MB)    (MI)
DIMNDSHOAL 41025 0350            74 81   50/  4/  6 1022.2F
WVE H/P(F/S)=  4/ 9 SWL H/P/D(F/S/D)=  3/110/ 9

CAPE LOOKOUT     0400            67     330/  5/  6 1022.4S
ONSLOW BAY 41036 NOT AVBL
ONSLOW BAY 41064 0308            74     100/  2/  6 1022.6R
ONSLOW BAY 41159 NOT AVBL
MASNBO INL 41110 0359               74                N/A
WVE H/P(F/S)=  3/ 8

WILM HARBR 41108 0400               74                N/A
WVE H/P(F/S)=  3/ 9

27SE WRITB 41037 0308            75 76   80/  6/ 10 1022.7R
FRYING PAN 41013 0400            75 76   50/  8/ 10 1022.5
SUNST NRSH 41024 0308            69 74  350/  4/  6 1022.9R
CAPRS NRSH 41029 0308            67 73  360/  6/  8 1022.9R
EDISTO     41004 0400            76 80   40/ 14/ 16 1021.9


..........OFFSHORE BUOYS BEYOND 100 NM OFFSHORE...........
.....IN A TRIANGLE---HAT TO BERMUDA TO BAHAMAS TO HAT.....


STATION/POSITION TIME  SKY/WX   TEMP    WIND        PRES    VSBY
                                AIR SEA DIR/SP/G
                 (UTC)          (F)     (DEG/KT/KT) (MB)    (MI)
150E HAT   41001 NOT AVBL
W BERMUDA  41048 0400            76 79  360/ 14/ 17 1016.6
ATLANTIC S 41049 0350            81 81  210/ 14/ 17 1018.8F
WVE H/P(F/S)=  6/ 9 SWL H/P/D(F/S/D)=  5/340/ 9

E BAHAMAS  41046 0400            82 82  150/ 10/ 12 1018.3
NE BAHAMAS 41047 0350            75 82  190/ 10/ 16 1017.0F
WVE H/P(F/S)=  6/ 8 SWL H/P/D(F/S/D)=  5/ 50/ 8

120E CANVRL41010 NOT AVBL

END




USA.gov is the U.S. government's official web portal to all federal, state and local government web resources and services.